[[{"header":{"parameterUnit":"m.s-1","parameterCategory":1,"la1":30.2991,"la2":30.254,"lo1":-89.0895,"lo2":-89.0444,"dy":0.0017,"dx":0.0017,"nx":28,"ny":28,"refTime":"2024-04-19T09:00:00:Z","depth":0,"parameterNumber":2,"parameterNumberName":"U-component_of_WINDS"},"data":[0,0,0,0,0,0,0,0,0,0,0,0,0,0,0,0,0,0,0,0,0,0,0,0,0,0,0,0,0,0,0,0,0,0,0,0,0,0,0,0,0,0,0,0,0,0,0,0,0,0,0,0,0,0,0,0,0,0,-0.709,-0.7089,0,-0.7026,-0.7026,-0.7025,-0.7009,-0.7009,-0.7009,-0.701,-0.6941,-0.6939,-0.6937,0,0,0,0,0,0,0,0,0,0,0,0,0,-0.7195,-0.7193,-0.709,-0.7089,-0.7088,-0.7027,-0.7026,-0.7025,-0.7009,-0.7009,-0.701,-0.701,-0.6942,-0.6939,-0.6936,0,0,0,0,0,0,0,0,0,0,0,0,0,-0.7142,-0.7192,-0.709,-0.7073,-0.7071,-0.7027,-0.7026,-0.7025,-0.7008,-0.7009,-0.701,-0.701,-0.6943,-0.6939,-0.6936,-0.6903,0,0,-0.6926,-0.6925,0,0,0,0,0,0,0,0,-0.7145,-0.7138,-0.7076,-0.7074,-0.7071,-0.7026,-0.7037,-0.6984,-0.7008,-0.7032,-0.701,-0.7011,-0.6969,-0.6963,-0.695,-0.69,-0.6897,-0.6926,-0.6924,-0.6922,-0.6921,0,0,0,0,0,0,0,-0.7149,-0.7141,-0.7065,-0.7075,-0.7072,-0.7068,-0.7061,-0.7027,-0.6997,-0.703,-0.7029,-0.7022,-0.6967,-0.6953,-0.6948,-0.6896,-0.6926,-0.6923,-0.6921,-0.6919,-0.6818,-0.6817,0,0,0,0,0,0,-0.7156,-0.7144,-0.7067,-0.7063,-0.7111,-0.7065,-0.7058,-0.704,-0.6998,-0.6992,-0.7021,-0.7021,-0.6958,-0.6952,-0.6946,-0.6905,-0.6922,-0.6919,-0.6917,-0.6818,-0.6817,-0.6817,0,0,0,0,0,0,-0.7158,-0.7149,-0.7069,-0.7103,-0.7092,-0.7063,-0.7043,-0.7038,-0.7024,-0.6991,-0.6986,-0.7012,-0.6959,-0.695,-0.6915,-0.6902,-0.6918,-0.6915,-0.6819,-0.6818,-0.6817,-0.6823,0,0,0,0,0,0,-0.7161,-0.715,-0.7138,-0.7103,-0.7091,-0.704,-0.7042,-0.7037,-0.7019,-0.7018,-0.6981,-0.6976,-0.6958,-0.692,-0.6911,-0.6898,-0.6912,-0.682,-0.6819,-0.6817,-0.6824,-0.6822,-0.6821,0,0,0,0,0,-0.7165,-0.7141,-0.7137,-0.7128,-0.7075,-0.7039,-0.7032,-0.7014,-0.7018,-0.7005,-0.6984,-0.6977,-0.6905,-0.6916,-0.6906,-0.6892,-0.6821,-0.6819,-0.6817,-0.6824,-0.6823,-0.6821,0,0,0,0,0,0,-0.7173,-0.7136,-0.7131,-0.7096,-0.7071,-0.7037,-0.702,-0.7013,-0.6985,-0.6986,-0.6963,-0.6955,-0.6921,-0.6903,-0.6916,-0.6859,-0.6863,-0.6859,-0.6872,-0.687,-0.6868,-0.6873,-0.6909,0,0,0,0,0,-0.7171,-0.7146,-0.7115,-0.7086,-0.7074,-0.7049,-0.7033,-0.7022,-0.6995,-0.6984,-0.696,-0.6933,-0.6905,-0.6886,-0.6858,-0.6822,-0.6813,-0.6807,-0.6806,-0.6805,-0.6802,-0.6781,-0.6778,-0.6811,-0.6811,-0.6811,0,0,-0.7166,-0.7143,-0.7128,-0.7087,-0.7067,-0.7041,-0.704,-0.7013,-0.6993,-0.6979,-0.6944,-0.6926,-0.6895,-0.6859,-0.6842,-0.6843,-0.6791,-0.6803,-0.6802,-0.6799,-0.6779,-0.6776,-0.6774,-0.681,-0.681,-0.6811,0,0,-0.7144,-0.7124,-0.7098,-0.7078,-0.7048,-0.7032,-0.7026,-0.6993,-0.6981,-0.6946,-0.6935,-0.6911,-0.6862,-0.6841,-0.6823,-0.6795,-0.6787,-0.6786,-0.6779,-0.6759,-0.6757,-0.6754,-0.6744,-0.674,-0.6783,-0.6783,-0.6783,0,-0.7141,-0.7102,-0.7085,-0.7059,-0.7041,-0.7029,-0.7003,-0.6984,-0.6945,-0.6933,-0.6936,-0.6875,-0.6853,-0.6812,-0.6806,-0.6792,-0.6784,-0.679,-0.6759,-0.6756,-0.6753,-0.6743,-0.6739,-0.6783,-0.6783,-0.6783,-0.6783,0,-0.71,-0.7074,-0.7056,-0.7022,-0.7002,-0.6976,-0.6954,-0.6937,-0.6927,-0.6911,-0.6876,-0.6849,-0.6816,-0.6806,-0.6795,-0.6763,-0.6765,-0.6763,-0.6767,-0.6751,-0.6741,-0.6737,-0.6784,-0.6784,-0.6784,-0.6784,0,0,-0.7079,-0.7037,-0.7031,-0.7016,-0.6982,-0.6961,-0.6934,-0.6903,-0.6888,-0.6863,-0.6839,-0.6799,-0.6798,-0.6778,-0.6766,-0.6749,-0.6728,-0.6749,-0.6748,-0.6746,-0.6691,-0.6692,-0.6688,-0.6723,-0.6723,-0.6722,-0.6694,0,-0.7052,-0.7005,-0.699,-0.695,-0.6926,-0.6915,-0.6892,-0.6868,-0.6853,-0.6829,-0.6811,-0.6783,-0.6784,-0.6772,-0.6755,-0.6734,-0.6717,-0.6736,-0.67,-0.6699,-0.6708,-0.6683,-0.6683,-0.6658,-0.669,-0.6689,-0.6688,0,-0.7014,-0.699,-0.6948,-0.6919,-0.6908,-0.6888,-0.6859,-0.6836,-0.681,-0.6799,-0.6779,-0.6768,-0.6739,-0.6745,-0.6705,-0.6719,-0.6703,-0.6691,-0.669,-0.6685,-0.6692,-0.6676,-0.6649,-0.6645,-0.6682,-0.6683,-0.6683,0,-0.7003,-0.696,-0.6929,-0.6916,-0.6882,-0.6868,-0.6852,-0.6826,-0.6809,-0.6784,-0.6772,-0.6743,-0.6727,-0.6704,-0.6686,-0.6692,-0.6647,-0.6652,-0.6637,-0.6637,-0.6627,-0.6627,-0.6596,-0.6618,-0.6618,-0.6618,-0.6618,0,-0.6974,-0.6949,-0.6924,-0.6905,-0.6877,-0.686,-0.6832,-0.6816,-0.6793,-0.6771,-0.676,-0.6738,-0.6716,-0.6691,-0.6677,-0.6645,-0.6638,-0.6629,-0.6625,-0.6629,-0.663,-0.6618,-0.6619,-0.6617,-0.6618,-0.6618,-0.6618,0,-0.6956,-0.6939,-0.6905,-0.6876,-0.6868,-0.6848,-0.6823,-0.6804,-0.6788,-0.676,-0.6752,-0.6728,-0.6699,-0.6679,-0.6641,-0.6631,-0.6597,-0.6594,-0.6606,-0.6604,-0.6591,-0.6592,-0.6549,-0.6543,-0.657,-0.657,-0.657,0,-0.6938,-0.6919,-0.6888,-0.6873,-0.6858,-0.6834,-0.6817,-0.68,-0.6782,-0.6752,-0.6736,-0.6707,-0.6682,-0.6637,-0.6615,-0.6586,-0.6581,-0.6569,-0.6577,-0.6582,-0.6581,-0.6582,-0.658,-0.6567,-0.6567,-0.6566,-0.6566,0,-0.6909,-0.6901,-0.6878,-0.6852,-0.6832,-0.681,-0.6788,-0.6776,-0.6755,-0.6736,-0.6707,-0.6688,-0.6651,-0.6622,-0.6591,-0.6574,-0.6566,-0.6564,-0.6559,-0.6563,-0.6571,-0.6566,-0.6602,-0.6565,-0.6565,-0.6565,-0.6565,-0.6565,-0.689,-0.6872,-0.6849,-0.6823,-0.6805,-0.6785,-0.6766,-0.6749,-0.6726,-0.6695,-0.6686,-0.6656,-0.663,-0.6589,-0.6572,-0.6548,-0.6549,-0.6541,-0.6539,-0.6538,-0.6538,-0.6576,-0.6542,-0.6542,-0.6542,-0.6542,-0.6542,0,-0.6859,-0.6844,-0.682,-0.6791,-0.6771,-0.6768,-0.6743,-0.6726,-0.67,-0.6678,-0.6655,-0.6622,-0.6594,-0.6571,-0.6542,-0.6527,-0.6523,-0.652,-0.652,-0.6517,-0.6539,-0.6546,-0.6524,-0.6524,-0.6524,-0.6524,-0.6524,-0.6524,-0.6841,-0.6811,-0.6801,-0.6763,-0.6748,-0.6719,-0.6706,-0.6687,-0.667,-0.6634,-0.6611,-0.6597,-0.6574,-0.6544,-0.6518,-0.6512,-0.6501,-0.6499,-0.6492,-0.6513,-0.6515,-0.6517,-0.6523,-0.6497,-0.6497,-0.6472,-0.6472,-0.6471]},{"header":{"parameterUnit":"m.s-1","parameterCategory":1,"la1":30.2991,"la2":30.254,"lo1":-89.0895,"lo2":-89.0444,"dy":0.0017,"dx":0.0017,"nx":28,"ny":28,"refTime":"2024-04-19T09:00:00:Z","depth":0,"parameterNumber":3,"parameterNumberName":"V-component_of_WINDS"},"data":[0,0,0,0,0,0,0,0,0,0,0,0,0,0,0,0,0,0,0,0,0,0,0,0,0,0,0,0,0,0,0,0,0,0,0,0,0,0,0,0,0,0,0,0,0,0,0,0,0,0,0,0,0,0,0,0,0,0,1.3316,1.3316,0,1.3282,1.3282,1.3282,1.3245,1.3245,1.3244,1.3244,1.3207,1.3207,1.3207,0,0,0,0,0,0,0,0,0,0,0,0,0,1.3347,1.3347,1.3316,1.3316,1.3315,1.3282,1.3282,1.3281,1.3245,1.3245,1.3244,1.3244,1.3208,1.3207,1.3206,0,0,0,0,0,0,0,0,0,0,0,0,0,1.3326,1.3347,1.3316,1.3293,1.3291,1.3282,1.3282,1.3281,1.3246,1.3245,1.3244,1.3243,1.3208,1.3207,1.3206,1.3217,0,0,1.3204,1.3204,0,0,0,0,0,0,0,0,1.3327,1.3324,1.3297,1.3295,1.3292,1.3267,1.3279,1.326,1.3246,1.3263,1.3244,1.3243,1.3228,1.3225,1.3221,1.3215,1.3214,1.3204,1.3204,1.3203,1.3203,0,0,0,0,0,0,0,1.3328,1.3326,1.3303,1.3297,1.3294,1.3284,1.328,1.3276,1.325,1.3261,1.3259,1.3255,1.3226,1.3222,1.322,1.3213,1.3204,1.3203,1.3203,1.3203,1.3214,1.3215,0,0,0,0,0,0,1.3334,1.3327,1.3304,1.3302,1.3308,1.3284,1.328,1.3276,1.325,1.3245,1.3256,1.3254,1.3223,1.3221,1.3218,1.3229,1.3203,1.3203,1.3202,1.3213,1.3214,1.3215,0,0,0,0,0,0,1.3334,1.3332,1.3305,1.3314,1.3309,1.3284,1.328,1.3276,1.3271,1.3246,1.3241,1.3256,1.3222,1.3219,1.3218,1.3227,1.3202,1.3202,1.3213,1.3214,1.3215,1.325,0,0,0,0,0,0,1.3335,1.3332,1.3337,1.3314,1.3309,1.3306,1.3281,1.3276,1.327,1.3267,1.3244,1.324,1.3222,1.3219,1.3217,1.3225,1.3201,1.3212,1.3213,1.3214,1.3248,1.3252,1.3256,0,0,0,0,0,1.3337,1.3348,1.3337,1.3334,1.3314,1.3306,1.3304,1.3283,1.3271,1.3275,1.3258,1.3241,1.3226,1.3219,1.3216,1.3225,1.3211,1.3213,1.3214,1.3246,1.3251,1.3256,0,0,0,0,0,0,1.3371,1.3344,1.3332,1.3336,1.3324,1.33,1.3304,1.3289,1.3279,1.3277,1.3251,1.3246,1.3247,1.3236,1.3228,1.3233,1.3216,1.3217,1.3241,1.3246,1.325,1.3252,1.32,0,0,0,0,0,1.338,1.3376,1.3352,1.3358,1.3353,1.333,1.3326,1.3311,1.3297,1.3291,1.3275,1.3261,1.3253,1.3249,1.324,1.3246,1.324,1.325,1.3254,1.3258,1.3259,1.326,1.3265,1.3221,1.3221,1.3221,0,0,1.3396,1.3381,1.338,1.3365,1.3353,1.335,1.3326,1.3323,1.332,1.329,1.3288,1.3276,1.3259,1.3261,1.3261,1.3251,1.327,1.326,1.3263,1.3262,1.3263,1.3267,1.3271,1.3222,1.3222,1.3221,0,0,1.3425,1.3413,1.3417,1.3406,1.3389,1.3374,1.3375,1.3354,1.3344,1.3342,1.332,1.3315,1.3303,1.3291,1.3284,1.3308,1.3291,1.3306,1.3327,1.3329,1.3332,1.3335,1.3343,1.3346,1.3307,1.3308,1.3308,0,1.3448,1.3442,1.342,1.3419,1.3413,1.3386,1.3389,1.338,1.3361,1.3357,1.3347,1.333,1.3317,1.3316,1.3322,1.3317,1.3316,1.3308,1.3333,1.3336,1.3338,1.3346,1.3349,1.3309,1.3309,1.3309,1.3309,0,1.3471,1.3467,1.3472,1.3455,1.3449,1.345,1.3428,1.3424,1.3409,1.3395,1.3392,1.3375,1.3363,1.3362,1.3347,1.3358,1.3353,1.3338,1.332,1.3345,1.3352,1.3354,1.3312,1.3311,1.3311,1.331,0,0,1.352,1.3492,1.3494,1.3486,1.3465,1.3462,1.3461,1.3449,1.3447,1.3435,1.3433,1.3423,1.3409,1.3401,1.3385,1.3387,1.3406,1.3372,1.3371,1.3379,1.3417,1.3428,1.3431,1.3395,1.3396,1.3396,1.3418,0,1.3545,1.3543,1.3523,1.3527,1.3523,1.3498,1.3497,1.3484,1.3471,1.3465,1.3449,1.3442,1.3425,1.342,1.3421,1.3404,1.3414,1.3402,1.3393,1.3393,1.3398,1.3435,1.3446,1.3468,1.3421,1.3421,1.3421,0,1.3574,1.3564,1.3567,1.3547,1.3544,1.3544,1.3532,1.3527,1.3511,1.3501,1.3492,1.3474,1.3471,1.3454,1.345,1.3442,1.3437,1.3428,1.3428,1.3427,1.3408,1.3434,1.3475,1.3478,1.3425,1.3425,1.3425,0,1.3609,1.3597,1.3597,1.3591,1.3567,1.3568,1.3558,1.3542,1.3536,1.3525,1.352,1.3509,1.3503,1.3494,1.3473,1.3463,1.347,1.3452,1.3461,1.3462,1.3464,1.3464,1.3504,1.3461,1.3461,1.3461,1.3461,0,1.3639,1.3642,1.3613,1.3613,1.3615,1.3592,1.3595,1.3582,1.3568,1.3565,1.3542,1.3539,1.3512,1.3506,1.3489,1.3487,1.3485,1.3476,1.3471,1.3478,1.3479,1.3474,1.3472,1.3462,1.3461,1.3461,1.3461,0,1.3679,1.366,1.3658,1.3636,1.3631,1.3633,1.3614,1.3612,1.3597,1.3593,1.3591,1.3567,1.3559,1.3537,1.3523,1.3512,1.3514,1.3506,1.352,1.3517,1.3527,1.3527,1.3566,1.3569,1.3524,1.3525,1.3525,0,1.3699,1.3701,1.3679,1.3676,1.3667,1.3661,1.3655,1.3633,1.3627,1.361,1.361,1.36,1.3591,1.3578,1.3559,1.3548,1.3539,1.3554,1.3537,1.3544,1.3539,1.3539,1.3539,1.3557,1.3558,1.3559,1.3559,0,1.3737,1.3728,1.372,1.371,1.3704,1.3694,1.3683,1.3681,1.3656,1.3651,1.3642,1.3635,1.3621,1.3611,1.3596,1.3585,1.3567,1.3564,1.3566,1.3572,1.358,1.3576,1.3529,1.3563,1.3563,1.3563,1.3562,1.3562,1.3768,1.3768,1.3753,1.3745,1.3735,1.3725,1.3723,1.3708,1.37,1.3688,1.3674,1.3667,1.3651,1.363,1.362,1.3613,1.3604,1.3606,1.3607,1.3608,1.3611,1.3581,1.361,1.361,1.361,1.361,1.361,0,1.3804,1.3793,1.3786,1.3772,1.3766,1.3751,1.3738,1.3734,1.3728,1.3715,1.3707,1.3696,1.3687,1.3667,1.3655,1.3653,1.3645,1.3651,1.3651,1.3648,1.362,1.3619,1.3658,1.3658,1.3658,1.3658,1.3658,1.3658,1.3822,1.3822,1.381,1.3804,1.3793,1.3786,1.378,1.3771,1.376,1.375,1.3742,1.373,1.3714,1.37,1.369,1.3685,1.3681,1.369,1.3681,1.3655,1.365,1.3646,1.3646,1.3689,1.3689,1.371,1.3711,1.3711]}]]